Location: Cahas Mountain Overlook
(37.0833°N, 80.1000°W)
Time: 18:18:05
(UTC-04:00)

FO-29 - Pass Details

Date: 28 April 2024
Orbit: 801 x 1320 km, 98.6° (Epoch: 02 October)

Event Time Altitude Azimuth Distance (km) Brightness Sun altitude
Rises 05:06:22 0° 356° (N) 4,265 13.2 -15.7°
Reaches altitude 10° 05:10:17 10° 337° (NNW) 3,333 12.4 -15.0°
Maximum altitude 05:14:35 16° 303° (WNW) 2,897 11.7 -14.3°
Enters shadow 05:18:28 11° 271° (W) 3,259 11.7 -13.6°
